Skip Page Navigation
NASA JPL Caltech
NASA Logo - Jet Propulsion Laboratory + View the NASA Portal
+ Center for Near-Earth Object Studies
JPL Home Earth Solar System Stars & Galaxies Technology
JPL Solar System Dynamics
BODIES ORBITS EPHEMERIDES TOOLS PHYSICAL DATA DISCOVERY FAQ SITE MAP
IMPORTANT: The SSD Announcement email list is now available. Major changes are coming in the near future, including possible hostname and/or URL changes. To be notified of such changes, subscribe to this email list.

Please visit this page for more details.


JPL Small-Body Database Browser
Search: [ help ]  
(2019 UH7)
Classification: Apollo [NEO]          SPK-ID: 3883085
Ephemeris | Orbit Diagram | Orbital Elements | Mission Design | Physical Parameters | Close-Approach Data ]

[ hide orbit diagram ]

For accurate long-term ephemerides, please instead use our Horizons system.This orbit viewer was implemented using two-body methods, and hence should not be used for determining accurate long-term trajectories (over several years or decades) or planetary encounter circumstances.


[ revert to old Java-based viewer ]

Orbital Elements at Epoch 2458782.5 (2019-Oct-26.0) TDB
Reference: JPL 2 (heliocentric ecliptic J2000)
 Element Value Uncertainty (1-sigma)   Units 
e .370817315232315 0.001265  
a 1.595062677392309 0.0032835 au
q 1.003585817734425 4.825e-05 au
i 6.352491303646899 0.017324 deg
node 32.69782055990335 6.3324e-05 deg
peri 21.74962350604711 0.0047237 deg
M 350.261109835278 0.035467 deg
tp 2458802.405451084784
(2019-Nov-14.90545108)
0.011064 TDB
period 735.8089340077066
2.01
2.272
0.00622
d
yr
n .4892574462764399 0.0015107 deg/d
Q 2.186539537050194 0.004501 au
  Orbit Determination Parameters
   # obs. used (total)      21  
   data-arc span      5 days  
   first obs. used      2019-10-25  
   last obs. used      2019-10-30  
   planetary ephem.      DE431  
   SB-pert. ephem.      SB431-N16  
   condition code      8  
   norm. resid. RMS      .44504  
   source      ORB  
   producer      Otto Matic  
   solution date      2019-Oct-30 08:03:29  

Additional Information
 Earth MOID = .0242628 au 
 Jupiter MOID = 3.19393 au 
 T_jup = 4.284 
[ show covariance matrix ]

Ephemeris | Orbit Diagram | Orbital Elements | Mission Design | Physical Parameters | Close-Approach Data ]

Physical Parameter Table
Parameter Symbol Value Units Sigma Reference Notes
absolute magnitude H 27.592   .33011 2 autocmod 2.8

[ show close-approach data ]
Ephemeris | Orbit Diagram | Orbital Elements | Mission Design | Physical Parameters | Close-Approach Data ]
ABOUT SSD CREDITS/AWARDS PRIVACY/COPYRIGHT GLOSSARY LINKS
FirstGov 2019-Dec-14 00:32 UT
(server date/time)  
NASA Home Page
Site Manager:   Ryan S. Park
Webmaster  Alan B. Chamberlin